Showing default

COSMOS 2538, 44424

Orbit data source: Space-Track

COSMOS 2538, 44424 is a payload satellite owned by TsNIIKhM (CIS) in SSO that was launched on Wed, 10 Jul 2019 UTC via a SOYUZ-2-1V launch vehicle from the Plesetsk Missile And Space Complex (PKMTR). Payload-class satellites include a variety of spacecraft equipped with specific instruments for various scientific and technological missions. These include communications satellites like Starlink; space stations such as the ISS; scientific satellites like the Hubble; Earth observation satellites from companies like Planet Labs, Umbra, and HawkEye 360; GPS; miniature CubeSats for education and research; and military/defense satellites.

Loading next visibility...
Identifier
44424, 2019-039D
Orbit
SSO
Country
Flag of CISCIS
Related business
Manufacturer
TsNIIKhM
Mission
Operational Defense Technology
Bus & Motor
NIVELIR, Unknown motor
Mass
~100 kg wet, ~100 kg dry
Launch date (UTC)
2019-07-10 (6 years ago)
Launch vehicle
SOYUZ-2-1V
Launch site
Plesetsk Missile And Space Complex (PKMTR)
Object type
Payload
Rocket body
Debris
Shape & HBR
Sphere, 0.4 m
Radar Cross Section
0.503 m², Medium (>0.1 m² and < 1m²)

Expand to show TLE details & history
Last TLE update: 6 hours ago

TLE from 6 hours ago
0 COSMOS 2538
1 44424U 19039D   25258.23636409  .00007525  00000-0  38185-3 0  9992
2 44424  97.6172 331.1201 0044799 279.6009  80.0163 15.16337846338173
Epoch: 2025-09-15T05:40Z
TLE epoch observation values (Epoch: 2025-09-15T05:40:21.857Z)
Latitude
-0.00006°
Longitude
-108.41488°
Altitude
514.777 km
Speed
7.609 km/s
True Right ascension
22h 04m 28s
True Declination
0° 00' 00"
Sunlit
Object was in full shadow at epoch
Visualization orbit readout
Latitude
Unknown
Longitude
Unknown
Altitude
Unknown
Speed
Unknown
Apparent Right ascension
Unknown
Apparent Declination
Unknown
Sunlit
N/A
Visualization observer readout
Local Sidereal Time
04:15:26
Azimuth
Unknown
Elevation
Unknown
Doppler factor
Unknown
Orbital elements
Apogee altitude
544.775 km
Perigee altitude
483.024 km
Semi-major axis
6,892.037 km
Eccentricity
0.00448
Inclination
97.6172°
RAAN
331.1201°
Arg. of periapsis
279.6009°
True anomaly
80.52237°
Mean anomaly
80.0163°
Eccentric anomaly
80.26929°
Mean motion
3.79334 °/min
Orbital period
94.9 mins
BSTAR
0.00038185
Loading maneuver chart data...
Computing Atmospheric mass density...

Documentation

Showing up to 5 results
|